Weather History for K9D7 - March, 2013

Change the Weather History Date:

Wednesday, March 13, 2013

  Actual Average (KDVL) Record (KDVL)
Temperature  
Mean Temperature 4 °F -  
Max Temperature 23 °F 33 °F 57 °F (2012)
Min Temperature -16 °F 16 °F -18 °F (1993)
Degree Days  
Heating Degree Days 62    
Moisture  
Dew Point 0 °F    
Average Humidity 85    
Maximum Humidity 100    
Minimum Humidity 70    
Precipitation  
Precipitation 0.00 in - - ()
Sea Level Pressure  
Sea Level Pressure 30.15 in    
Wind  
Wind Speed 8 mph (SSE)    
Max Wind Speed 20 mph    
Max Gust Speed 26 mph    
Visibility 8 miles    
Events Rain , Snow    
Averages and records for this station are not official NWS values.
T = Trace of Precipitation, MM = Missing Value Source: NWS Daily Summary

Daily Weather History Graph

Daily Weather History Graph

Search for Another Location

Airport or City:

Trip Planner

Search our weather history database for the weather conditions in past years. The results will help you decide how hot, cold, wet, or windy it might be!

Date:

Astronomy

Mar. 13, 2013 Rise Set
Actual Time 7:53 AM CDT 7:39 PM CDT
Civil Twilight 7:22 AM CDT 8:10 PM CDT
Nautical Twilight 6:46 AM CDT 8:47 PM CDT
Astronomical Twilight 6:08 AM CDT 9:24 PM CDT
Moon 8:21 AM CDT (3/13) 10:13 PM CDT (3/13)
Length of Visible Light 12h 48m
Length of Day
11h 46m
Waxing Crescent, 4% of the Moon is Illuminated
Mar 13
Waxing Crescent
Mar 19
First Quarter
Mar 27
Full
Apr 2
Last Quarter
Apr 10
New

Hourly Weather History & Observations

Time (CDT) Temp. Windchill Dew Point Humidity Pressure Visibility Wind Dir Wind Speed Gust Speed Precip Events Conditions
12:55 AM -9.4 °F -24.3 °F -13.0 °F 84% 30.29 in 10.0 mi West 6.9 mph - N/A   Clear
1:15 AM -9.4 °F -20.9 °F -13.0 °F 84% 30.29 in 10.0 mi WNW 4.6 mph - N/A   Clear
1:35 AM -9.4 °F -18.6 °F -13.0 °F 84% 30.29 in 10.0 mi NW 3.5 mph - N/A   Clear
1:55 AM -9.4 °F - -13.0 °F 84% 30.29 in 10.0 mi Calm Calm - N/A   Clear
2:15 AM -9.4 °F - -13.0 °F 84% 30.28 in 10.0 mi Calm Calm - N/A   Clear
2:35 AM -11.2 °F -20.6 °F -16.6 °F 77% 30.28 in 10.0 mi West 3.5 mph - N/A   Clear
2:55 AM -13.0 °F -25.1 °F -16.6 °F 84% 30.28 in 10.0 mi West 4.6 mph - N/A   Clear
3:15 AM -13.0 °F -25.1 °F -16.6 °F 84% 30.28 in 10.0 mi West 4.6 mph - N/A   Clear
3:55 AM -13.0 °F - -18.4 °F 77% 30.27 in 10.0 mi Calm Calm - N/A   Partly Cloudy
4:15 AM - - - N/A% 30.27 in 10.0 mi West 3.5 mph - N/A   Mostly Cloudy
4:35 AM -11.2 °F - -16.6 °F 77% 30.27 in 0.2 mi Calm Calm - N/A   Haze
4:55 AM -13.0 °F - -18.4 °F 77% 30.27 in 0.2 mi Calm Calm - N/A   Haze
5:15 AM -13.0 °F - -18.4 °F 77% 30.27 in 0.2 mi Calm Calm - N/A   Haze
5:35 AM -14.8 °F - -20.2 °F 77% 30.26 in 0.2 mi Calm Calm - N/A   Haze
5:55 AM -13.0 °F - -20.2 °F 70% 30.26 in 0.2 mi Calm Calm - N/A   Haze
6:15 AM -16.6 °F -26.8 °F -22.0 °F 76% 30.26 in 0.2 mi SE 3.5 mph - N/A   Haze
6:35 AM -16.6 °F -26.8 °F -22.0 °F 76% 30.27 in - SE 3.5 mph - N/A   Overcast
6:55 AM -16.6 °F -26.8 °F -22.0 °F 76% 30.27 in - SE 3.5 mph - N/A   Overcast
7:15 AM -16.6 °F -26.8 °F -22.0 °F 76% 30.27 in - SE 3.5 mph - N/A   Overcast
7:35 AM -16.6 °F -31.3 °F -22.0 °F 76% 30.26 in - SSE 5.8 mph - N/A   Overcast
7:55 AM -16.6 °F -32.9 °F -22.0 °F 76% 30.26 in - SSE 6.9 mph - N/A   Overcast
8:15 AM -16.6 °F -31.3 °F -22.0 °F 76% 30.27 in - SSE 5.8 mph - N/A   Overcast
8:35 AM -14.8 °F -24.8 °F -20.2 °F 77% 30.26 in - SE 3.5 mph - N/A   Overcast
8:55 AM -13.0 °F -27.0 °F -20.2 °F 70% 30.26 in - ESE 5.8 mph - N/A   Overcast
9:15 AM -13.0 °F -27.0 °F -18.4 °F 77% 30.25 in - ESE 5.8 mph - N/A   Overcast
9:35 AM -11.2 °F -27.8 °F -16.6 °F 77% 30.24 in 0.2 mi SE 8.1 mph - N/A   Haze
9:55 AM -9.4 °F -27.9 °F -14.8 °F 77% 30.24 in 0.2 mi SSE 10.4 mph - N/A Snow Heavy Snow
10:15 AM -7.6 °F -23.4 °F -13.0 °F 77% 30.24 in 0.2 mi SSE 8.1 mph - N/A   Haze
10:35 AM -5.8 °F -21.2 °F -11.2 °F 77% 30.24 in 0.2 mi SE 8.1 mph - N/A   Haze
10:55 AM -4.0 °F -20.2 °F -7.6 °F 85% 30.24 in 1.2 mi SE 9.2 mph - N/A   Overcast
11:15 AM -2.2 °F -16.8 °F -5.8 °F 85% 30.24 in 1.5 mi SSE 8.1 mph - N/A   Overcast
11:35 AM -0.4 °F -15.7 °F -4.0 °F 85% 30.22 in 7.0 mi SE 9.2 mph - N/A   Overcast
11:55 AM 1.4 °F -13.5 °F -2.2 °F 85% 30.21 in 5.0 mi SSE 9.2 mph - N/A   Scattered Clouds
12:15 PM 3.2 °F -12.2 °F -0.4 °F 85% 30.20 in 8.0 mi SE 10.4 mph - N/A   Mostly Cloudy
12:35 PM 5.0 °F -10.8 °F 1.4 °F 85% 30.19 in 9.0 mi SE 11.5 mph - N/A   Mostly Cloudy
12:55 PM 6.8 °F -9.3 °F 5.0 °F 92% 30.18 in 10.0 mi SE 12.7 mph - N/A   Mostly Cloudy
1:15 PM 8.6 °F -7.7 °F 6.8 °F 92% 30.17 in 9.0 mi SE 13.8 mph - N/A   Scattered Clouds
1:35 PM 10.4 °F -6.0 °F 8.6 °F 92% 30.16 in 10.0 mi SE 15.0 mph - N/A   Clear
1:55 PM 14.0 °F -1.4 °F 10.4 °F 86% 30.15 in 10.0 mi SE 15.0 mph - N/A   Clear
2:15 PM 14.0 °F -2.5 °F 12.2 °F 93% 30.14 in 10.0 mi SE 17.3 mph - N/A   Clear
2:35 PM 14.0 °F -2.0 °F 14.0 °F 100% 30.13 in 10.0 mi SE 16.1 mph - N/A   Mostly Cloudy
2:55 PM 15.8 °F 0.9 °F 14.0 °F 93% 30.12 in 10.0 mi SE 15.0 mph - N/A   Overcast
3:15 PM 15.8 °F -0.2 °F 15.8 °F 100% 30.11 in 10.0 mi SE 17.3 mph - N/A   Overcast
3:35 PM 17.6 °F 2.2 °F 15.8 °F 93% 30.09 in 10.0 mi SE 17.3 mph - N/A   Overcast
4:15 PM 17.6 °F 1.7 °F 15.8 °F 93% 30.07 in 10.0 mi SE 18.4 mph - N/A   Overcast
4:35 PM 17.6 °F 1.3 °F 15.8 °F 93% 30.07 in 10.0 mi SE 19.6 mph - N/A   Overcast
4:55 PM 17.6 °F 2.2 °F 15.8 °F 93% 30.07 in 10.0 mi SSE 17.3 mph - N/A   Mostly Cloudy
5:15 PM 19.4 °F 4.1 °F 17.6 °F 93% 30.06 in 10.0 mi SSE 18.4 mph - N/A   Mostly Cloudy
5:35 PM 19.4 °F 4.1 °F 17.6 °F 93% 30.04 in 10.0 mi SSE 18.4 mph - N/A   Mostly Cloudy
5:55 PM 19.4 °F 4.5 °F 17.6 °F 93% 30.03 in 10.0 mi SSE 17.3 mph - N/A   Overcast
6:15 PM 19.4 °F 5.5 °F 17.6 °F 93% 30.03 in 10.0 mi SSE 15.0 mph - N/A   Overcast
6:35 PM 19.4 °F 5.5 °F 17.6 °F 93% 30.02 in 10.0 mi SE 15.0 mph - N/A   Overcast
6:55 PM 21.2 °F 6.4 °F 17.6 °F 86% 30.02 in 10.0 mi SSE 18.4 mph - N/A   Overcast
7:15 PM 21.2 °F 6.8 °F 17.6 °F 86% 30.01 in 10.0 mi SSE 17.3 mph - N/A   Overcast
7:35 PM 21.2 °F 6.4 °F 19.4 °F 93% 30.00 in 10.0 mi SSE 18.4 mph - N/A   Overcast
7:55 PM 21.2 °F 6.8 °F 19.4 °F 93% 29.99 in 8.0 mi SSE 17.3 mph - N/A Snow Light Snow
8:15 PM 21.2 °F 6.4 °F 19.4 °F 93% 29.99 in 7.0 mi SSE 18.4 mph - N/A Snow Light Snow
8:35 PM 23.0 °F 8.3 °F 19.4 °F 86% 29.99 in 5.0 mi SSE 19.6 mph 26.5 mph N/A Rain Light Freezing Rain
8:55 PM 23.0 °F 9.2 °F 19.4 °F 86% 29.98 in 9.0 mi SSE 17.3 mph 23.0 mph N/A Snow Light Snow
9:15 PM 23.0 °F 9.2 °F 19.4 °F 86% 29.97 in 10.0 mi SSE 17.3 mph - N/A   Overcast
9:35 PM 23.0 °F 10.6 °F 19.4 °F 86% 29.99 in 10.0 mi SE 13.8 mph - N/A   Overcast
9:55 PM 23.0 °F 10.6 °F 19.4 °F 86% 29.97 in 10.0 mi ESE 13.8 mph - N/A   Overcast
10:15 PM 21.2 °F 7.8 °F 19.4 °F 93% 29.96 in 10.0 mi SE 15.0 mph - N/A   Overcast
10:35 PM 21.2 °F 6.4 °F 19.4 °F 93% 29.95 in 10.0 mi SE 18.4 mph - N/A   Overcast
10:55 PM 23.0 °F 9.2 °F 19.4 °F 86% 29.95 in 10.0 mi SE 17.3 mph - N/A   Overcast
11:15 PM 23.0 °F 9.6 °F 19.4 °F 86% 29.95 in 10.0 mi SSE 16.1 mph - N/A   Overcast
11:35 PM 23.0 °F 10.1 °F 19.4 °F 86% 29.95 in 10.0 mi SSE 15.0 mph - N/A   Overcast
11:55 PM 21.2 °F 10.1 °F 19.4 °F 93% 29.96 in 10.0 mi SSE 10.4 mph - N/A   Scattered Clouds